| time (UTC) | temp F | wind direction | speed MPH | gust MPH | rain 1hr in | rain 24hr in | rain mn in | humidity % | barometer mb |
| 20260509074604 | 52 | 223 | 1.0 | 1.0 | 0.00 | 0.00 | 0.00 | 82 | 1023.2 |
| 20260509073622 | 52 | 231 | 1.0 | 2.0 | 0.00 | 0.00 | 0.00 | 82 | 1023.3 |
| 20260509072601 | 52 | 216 | 1.0 | 1.0 | 0.00 | 0.00 | 0.00 | 82 | 1023.3 |
| 20260509071559 | 52 | 229 | 1.0 | 2.0 | 0.00 | 0.00 | 0.00 | 82 | 1023.2 |
| 20260509070557 | 52 | 232 | 1.0 | 2.0 | 0.00 | 0.00 | 0.00 | 82 | 1023.2 |
| 20260509065555 | 51 | 235 | 0.0 | 1.0 | 0.00 | 0.00 | 0.00 | 81 | 1023.3 |
| 20260509064634 | 52 | 0.0 | 0.0 | 0.00 | 0.00 | 0.00 | 81 | 1023.2 | |
| 20260509063551 | 52 | 209 | 0.0 | 1.0 | 0.00 | 0.00 | 0.00 | 81 | 1023.2 |
| 20260509062550 | 52 | 216 | 0.0 | 1.0 | 0.00 | 0.00 | 0.00 | 81 | 1023.2 |
| 20260509061548 | 52 | 0.0 | 0.0 | 0.00 | 0.00 | 0.00 | 80 | 1023.1 | |
| 20260509060546 | 52 | 213 | 1.0 | 2.0 | 0.00 | 0.00 | 0.00 | 80 | 1023.0 |
| 20260509055545 | 52 | 237 | 1.0 | 2.0 | 0.00 | 0.00 | 0.00 | 79 | 1023.0 |
| 20260509054543 | 52 | 224 | 1.0 | 2.0 | 0.00 | 0.00 | 0.00 | 79 | 1022.9 |
| 20260509053542 | 52 | 228 | 2.0 | 3.0 | 0.00 | 0.00 | 0.00 | 78 | 1022.8 |
| 20260509052539 | 52 | 218 | 2.0 | 3.0 | 0.00 | 0.00 | 0.00 | 77 | 1022.9 |
| 20260509051538 | 52 | 232 | 2.0 | 4.0 | 0.00 | 0.00 | 0.00 | 76 | 1022.8 |
| 20260509050536 | 53 | 238 | 2.0 | 4.0 | 0.00 | 0.00 | 0.00 | 75 | 1022.8 |
| 20260509045534 | 53 | 244 | 2.0 | 3.0 | 0.00 | 0.00 | 0.00 | 75 | 1022.8 |
| 20260509044533 | 54 | 242 | 2.0 | 3.0 | 0.00 | 0.00 | 0.00 | 75 | 1022.8 |
| 20260509043531 | 54 | 236 | 3.0 | 6.0 | 0.00 | 0.00 | 0.00 | 74 | 1022.8 |
| 20260509042529 | 54 | 240 | 3.0 | 6.0 | 0.00 | 0.00 | 0.00 | 73 | 1022.8 |
| 20260509041547 | 55 | 251 | 2.0 | 6.0 | 0.00 | 0.00 | 0.00 | 72 | 1022.6 |
| 20260509040526 | 55 | 238 | 2.0 | 6.0 | 0.00 | 0.00 | 0.00 | 72 | 1022.5 |
| 20260509035524 | 55 | 262 | 2.0 | 7.0 | 0.00 | 0.00 | 0.00 | 71 | 1022.4 |
| 20260509034523 | 56 | 259 | 3.0 | 7.0 | 0.00 | 0.00 | 0.00 | 70 | 1022.3 |
| 20260509033521 | 56 | 257 | 2.0 | 6.0 | 0.00 | 0.00 | 0.00 | 69 | 1022.2 |
| 20260509032519 | 57 | 246 | 1.0 | 3.0 | 0.00 | 0.00 | 0.00 | 67 | 1022.2 |
| 20260509031517 | 58 | 244 | 1.0 | 3.0 | 0.00 | 0.00 | 0.00 | 66 | 1022.1 |
| 20260509030515 | 58 | 252 | 3.0 | 7.0 | 0.00 | 0.00 | 0.00 | 64 | 1022.2 |
| 20260509025614 | 59 | 249 | 2.0 | 4.0 | 0.00 | 0.00 | 0.00 | 63 | 1022.0 |
| 20260509024653 | 60 | 265 | 2.0 | 7.0 | 0.00 | 0.00 | 0.00 | 63 | 1021.8 |
| 20260509023613 | 60 | 260 | 3.0 | 7.0 | 0.00 | 0.00 | 0.00 | 62 | 1021.7 |
| 20260509022709 | 61 | 270 | 2.0 | 4.0 | 0.00 | 0.00 | 0.00 | 61 | 1021.8 |
| 20260509021607 | 61 | 284 | 4.0 | 10.0 | 0.00 | 0.00 | 0.00 | 60 | 1021.6 |
| 20260509020605 | 61 | 264 | 1.0 | 6.0 | 0.00 | 0.00 | 0.00 | 60 | 1021.6 |
| 20260509015606 | 62 | 268 | 3.0 | 4.0 | 0.00 | 0.00 | 0.00 | 59 | 1021.7 |
| 20260509014622 | 62 | 279 | 3.0 | 8.0 | 0.00 | 0.00 | 0.00 | 58 | 1021.7 |
| 20260509013600 | 63 | 260 | 3.0 | 8.0 | 0.00 | 0.00 | 0.00 | 56 | 1021.7 |
| 20260509012559 | 63 | 261 | 2.0 | 6.0 | 0.00 | 0.00 | 0.00 | 55 | 1021.6 |
| 20260509011557 | 64 | 225 | 2.0 | 4.0 | 0.00 | 0.00 | 0.00 | 55 | 1021.6 |
| 20260509010555 | 64 | 249 | 3.0 | 6.0 | 0.00 | 0.00 | 0.00 | 55 | 1021.7 |
| 20260509005553 | 64 | 262 | 3.0 | 8.0 | 0.00 | 0.00 | 0.00 | 54 | 1021.9 |
| 20260509004552 | 64 | 243 | 4.0 | 10.0 | 0.00 | 0.00 | 0.00 | 54 | 1021.7 |
| 20260509003550 | 64 | 247 | 3.0 | 8.0 | 0.00 | 0.00 | 0.00 | 54 | 1021.8 |
| 20260509002548 | 64 | 240 | 7.0 | 11.0 | 0.00 | 0.00 | 0.00 | 54 | 1021.7 |
| 20260509001547 | 64 | 260 | 4.0 | 8.0 | 0.00 | 0.00 | 0.00 | 53 | 1021.7 |
| 20260509000545 | 65 | 288 | 4.0 | 11.0 | 0.00 | 0.00 | 0.00 | 52 | 1021.6 |
| 20260508235543 | 65 | 254 | 4.0 | 7.0 | 0.00 | 0.00 | 0.00 | 53 | 1021.6 |
| 20260508234542 | 64 | 274 | 2.0 | 6.0 | 0.00 | 0.00 | 0.00 | 52 | 1021.6 |
| 20260508233620 | 64 | 260 | 4.0 | 8.0 | 0.00 | 0.00 | 0.00 | 52 | 1021.6 |
| 20260508232538 | 65 | 242 | 4.0 | 10.0 | 0.00 | 0.00 | 0.00 | 53 | 1021.6 |
| 20260508231536 | 64 | 253 | 6.0 | 11.0 | 0.00 | 0.00 | 0.00 | 53 | 1021.5 |
| 20260508230535 | 65 | 245 | 4.0 | 9.0 | 0.00 | 0.00 | 0.00 | 52 | 1021.6 |
| 20260508225535 | 65 | 267 | 2.0 | 6.0 | 0.00 | 0.00 | 0.00 | 52 | 1021.6 |
| 20260508224531 | 66 | 251 | 5.0 | 8.0 | 0.00 | 0.00 | 0.00 | 51 | 1021.6 |
| 20260508223529 | 67 | 258 | 3.0 | 7.0 | 0.00 | 0.00 | 0.00 | 50 | 1021.6 |
| 20260508222528 | 66 | 223 | 5.0 | 10.0 | 0.00 | 0.00 | 0.00 | 50 | 1021.7 |
| 20260508221526 | 66 | 212 | 4.0 | 9.0 | 0.00 | 0.00 | 0.00 | 50 | 1021.5 |
| 20260508220525 | 66 | 188 | 6.0 | 9.0 | 0.00 | 0.00 | 0.00 | 51 | 1021.5 |
| 20260508215523 | 66 | 256 | 4.0 | 8.0 | 0.00 | 0.00 | 0.00 | 50 | 1021.6 |
| 20260508214541 | 66 | 236 | 4.0 | 8.0 | 0.00 | 0.00 | 0.00 | 49 | 1021.7 |
| 20260508213519 | 66 | 218 | 5.0 | 15.0 | 0.00 | 0.00 | 0.00 | 49 | 1021.8 |
| 20260508212517 | 67 | 228 | 7.0 | 13.0 | 0.00 | 0.00 | 0.00 | 48 | 1021.8 |
| 20260508211516 | 67 | 232 | 4.0 | 13.0 | 0.00 | 0.00 | 0.00 | 50 | 1021.7 |
| 20260508210634 | 68 | 241 | 4.0 | 7.0 | 0.00 | 0.00 | 0.00 | 50 | 1021.7 |
| 20260508205633 | 67 | 226 | 5.0 | 8.0 | 0.00 | 0.00 | 0.00 | 50 | 1021.6 |
| 20260508204611 | 66 | 201 | 4.0 | 9.0 | 0.00 | 0.00 | 0.00 | 52 | 1021.5 |
| 20260508203629 | 65 | 223 | 6.0 | 14.0 | 0.00 | 0.00 | 0.00 | 51 | 1021.5 |
| 20260508202627 | 65 | 229 | 6.0 | 13.0 | 0.00 | 0.00 | 0.00 | 52 | 1021.4 |
| 20260508201606 | 65 | 226 | 4.0 | 7.0 | 0.00 | 0.00 | 0.00 | 53 | 1021.6 |
| 20260508200604 | 66 | 244 | 5.0 | 13.0 | 0.00 | 0.00 | 0.00 | 52 | 1021.5 |
| 20260508195602 | 65 | 201 | 5.0 | 8.0 | 0.00 | 0.00 | 0.00 | 53 | 1021.5 |
| 20260508194600 | 65 | 256 | 5.0 | 9.0 | 0.00 | 0.00 | 0.00 | 52 | 1021.4 |
| 20260508193600 | 65 | 232 | 6.0 | 13.0 | 0.00 | 0.00 | 0.00 | 52 | 1021.4 |
| 20260508192557 | 64 | 240 | 5.0 | 9.0 | 0.00 | 0.00 | 0.00 | 54 | 1021.5 |
| 20260508191555 | 63 | 226 | 5.0 | 10.0 | 0.00 | 0.00 | 0.00 | 55 | 1021.4 |
| 20260508190614 | 62 | 201 | 6.0 | 11.0 | 0.00 | 0.00 | 0.00 | 55 | 1021.6 |
| 20260508185552 | 62 | 232 | 6.0 | 15.0 | 0.00 | 0.00 | 0.00 | 56 | 1021.5 |
| 20260508184550 | 61 | 232 | 4.0 | 10.0 | 0.00 | 0.00 | 0.00 | 57 | 1021.5 |
| 20260508183548 | 61 | 228 | 6.0 | 13.0 | 0.00 | 0.00 | 0.00 | 58 | 1021.4 |
| 20260508182607 | 59 | 234 | 5.0 | 11.0 | 0.00 | 0.00 | 0.00 | 61 | 1021.5 |
| 20260508181545 | 59 | 234 | 7.0 | 13.0 | 0.00 | 0.00 | 0.00 | 59 | 1021.4 |
| 20260508175542 | 60 | 216 | 5.0 | 11.0 | 0.00 | 0.00 | 0.00 | 59 | 1020.9 |
| 20260508174540 | 60 | 225 | 6.0 | 10.0 | 0.00 | 0.00 | 0.00 | 58 | 1020.7 |
| 20260508173538 | 60 | 233 | 9.0 | 19.0 | 0.00 | 0.00 | 0.00 | 60 | 1020.7 |
| 20260508172617 | 59 | 244 | 9.0 | 18.0 | 0.00 | 0.00 | 0.00 | 60 | 1020.5 |
| 20260508171535 | 59 | 235 | 7.0 | 13.0 | 0.00 | 0.00 | 0.00 | 62 | 1020.5 |
| 20260508170533 | 59 | 256 | 6.0 | 11.0 | 0.00 | 0.00 | 0.00 | 61 | 1020.2 |
| 20260508165531 | 58 | 229 | 4.0 | 9.0 | 0.00 | 0.00 | 0.00 | 67 | 1020.2 |
| 20260508164529 | 57 | 249 | 5.0 | 13.0 | 0.00 | 0.00 | 0.00 | 66 | 1020.1 |
| 20260508163548 | 57 | 232 | 3.0 | 8.0 | 0.00 | 0.00 | 0.00 | 66 | 1020.1 |
| 20260508162526 | 58 | 230 | 3.0 | 7.0 | 0.00 | 0.00 | 0.00 | 64 | 1020.0 |
| 20260508161605 | 58 | 226 | 5.0 | 9.0 | 0.00 | 0.00 | 0.00 | 65 | 1019.8 |
| 20260508160523 | 58 | 171 | 2.0 | 7.0 | 0.00 | 0.00 | 0.00 | 66 | 1019.8 |
| 20260508155541 | 58 | 225 | 2.0 | 4.0 | 0.00 | 0.00 | 0.00 | 66 | 1019.7 |
| 20260508154520 | 58 | 223 | 3.0 | 7.0 | 0.00 | 0.00 | 0.00 | 66 | 1019.9 |
| 20260508153518 | 58 | 222 | 3.0 | 8.0 | 0.00 | 0.00 | 0.00 | 67 | 1019.9 |
| 20260508152516 | 58 | 219 | 3.0 | 8.0 | 0.00 | 0.00 | 0.00 | 66 | 1019.9 |
| 20260508151634 | 59 | 206 | 3.0 | 10.0 | 0.00 | 0.00 | 0.00 | 67 | 1019.9 |
| 20260508150613 | 60 | 227 | 2.0 | 8.0 | 0.00 | 0.00 | 0.00 | 67 | 1020.0 |
| 20260508145611 | 60 | 219 | 3.0 | 4.0 | 0.00 | 0.00 | 0.00 | 70 | 1020.0 |
| 20260508144609 | 57 | 224 | 4.0 | 11.0 | 0.00 | 0.00 | 0.00 | 78 | 1019.8 |
| 20260508143628 | 51 | 207 | 3.0 | 7.0 | 0.00 | 0.00 | 0.00 | 83 | 1019.7 |
| 20260508142606 | 49 | 233 | 1.0 | 6.0 | 0.00 | 0.00 | 0.00 | 84 | 1019.6 |
| 20260508141604 | 49 | 184 | 1.0 | 2.0 | 0.00 | 0.00 | 0.00 | 84 | 1019.4 |
| 20260508140602 | 49 | 192 | 2.0 | 6.0 | 0.00 | 0.00 | 0.00 | 85 | 1019.3 |
| 20260508135600 | 48 | 187 | 1.0 | 3.0 | 0.00 | 0.00 | 0.00 | 85 | 1019.2 |
| 20260508134619 | 48 | 237 | 1.0 | 3.0 | 0.00 | 0.00 | 0.00 | 85 | 1019.0 |
| 20260508133557 | 48 | 227 | 1.0 | 4.0 | 0.00 | 0.00 | 0.00 | 85 | 1018.8 |
| 20260508132555 | 48 | 219 | 2.0 | 4.0 | 0.00 | 0.00 | 0.00 | 85 | 1018.7 |
| 20260508131554 | 48 | 231 | 1.0 | 3.0 | 0.00 | 0.00 | 0.00 | 85 | 1018.4 |
| 20260508130552 | 48 | 231 | 1.0 | 3.0 | 0.00 | 0.00 | 0.00 | 85 | 1018.3 |
| 20260508125551 | 48 | 235 | 2.0 | 4.0 | 0.00 | 0.00 | 0.00 | 85 | 1018.4 |
| 20260508124549 | 48 | 217 | 2.0 | 4.0 | 0.00 | 0.00 | 0.00 | 85 | 1018.1 |
| 20260508123607 | 48 | 234 | 1.0 | 3.0 | 0.00 | 0.00 | 0.00 | 84 | 1018.1 |
| 20260508122545 | 48 | 236 | 3.0 | 7.0 | 0.00 | 0.00 | 0.00 | 84 | 1018.0 |
| 20260508121543 | 49 | 231 | 2.0 | 4.0 | 0.00 | 0.00 | 0.00 | 84 | 1017.9 |
| 20260508120542 | 49 | 235 | 4.0 | 6.0 | 0.00 | 0.00 | 0.00 | 84 | 1017.9 |
| 20260508115540 | 49 | 249 | 2.0 | 6.0 | 0.00 | 0.00 | 0.00 | 84 | 1017.7 |
| 20260508114538 | 49 | 233 | 2.0 | 4.0 | 0.00 | 0.00 | 0.00 | 84 | 1017.7 |
| 20260508113537 | 49 | 229 | 3.0 | 4.0 | 0.00 | 0.00 | 0.00 | 83 | 1017.5 |
| 20260508112535 | 49 | 235 | 2.0 | 6.0 | 0.00 | 0.00 | 0.00 | 83 | 1017.5 |
| 20260508111533 | 49 | 228 | 2.0 | 4.0 | 0.00 | 0.00 | 0.00 | 83 | 1017.5 |
| 20260508110532 | 49 | 241 | 2.0 | 3.0 | 0.00 | 0.00 | 0.00 | 83 | 1017.3 |
| 20260508105530 | 49 | 240 | 2.0 | 4.0 | 0.00 | 0.00 | 0.00 | 83 | 1017.1 |
| 20260508104528 | 49 | 254 | 3.0 | 7.0 | 0.00 | 0.00 | 0.00 | 83 | 1017.0 |
| 20260508103526 | 49 | 236 | 2.0 | 4.0 | 0.00 | 0.00 | 0.00 | 83 | 1016.9 |
| 20260508102525 | 49 | 230 | 2.0 | 6.0 | 0.00 | 0.00 | 0.00 | 83 | 1016.9 |
| 20260508101524 | 49 | 243 | 2.0 | 4.0 | 0.00 | 0.00 | 0.00 | 83 | 1017.0 |
| 20260508100521 | 49 | 247 | 2.0 | 3.0 | 0.00 | 0.00 | 0.00 | 83 | 1016.9 |
| 20260508095519 | 49 | 236 | 2.0 | 4.0 | 0.00 | 0.00 | 0.00 | 83 | 1016.9 |
| 20260508094518 | 49 | 233 | 1.0 | 4.0 | 0.00 | 0.00 | 0.00 | 82 | 1016.9 |
| 20260508093516 | 50 | 249 | 1.0 | 3.0 | 0.00 | 0.00 | 0.00 | 82 | 1017.0 |
| 20260508092615 | 50 | 236 | 1.0 | 3.0 | 0.00 | 0.00 | 0.00 | 82 | 1016.7 |
| 20260508091613 | 50 | 241 | 1.0 | 4.0 | 0.00 | 0.00 | 0.00 | 82 | 1016.8 |
| 20260508090611 | 50 | 246 | 1.0 | 3.0 | 0.00 | 0.00 | 0.00 | 82 | 1016.9 |
| 20260508085629 | 50 | 247 | 0.0 | 1.0 | 0.00 | 0.00 | 0.00 | 81 | 1016.8 |
| 20260508084607 | 50 | 247 | 0.0 | 1.0 | 0.00 | 0.00 | 0.00 | 81 | 1016.8 |
| 20260508083606 | 50 | 0.0 | 0.0 | 0.00 | 0.00 | 0.00 | 80 | 1016.7 | |
| 20260508082604 | 50 | 0.0 | 0.0 | 0.00 | 0.00 | 0.00 | 79 | 1016.6 | |
| 20260508081622 | 51 | 0.0 | 0.0 | 0.00 | 0.00 | 0.00 | 79 | 1016.6 | |
| 20260508080601 | 51 | 247 | 0.0 | 2.0 | 0.00 | 0.00 | 0.00 | 79 | 1016.5 |
| 20260508075559 | 51 | 255 | 0.0 | 1.0 | 0.00 | 0.00 | 0.00 | 78 | 1016.7 |